This demonstration page uses our WeatherBlox Daily Observations layout. Learn more.

Left ArrowRight Arrow

39.01783, -85.05884

Hourly Observations for January 7, 2021

Temp ( °F °C ) Dew Point ( °F °C ) Humidity (%) Winds ( mph kmh ) Pressure ( in mb ) Visibility ( mi km ) Precip ( " mm )
12:52 am 00:52 Cloudy 35 1.7 26 -3.3 70 70 NNE 5 7 30.29 1026 10 16 0.00 0.00
1:52 am 01:52 Cloudy 35 1.7 27 -2.8 72 72 NNE 6 9 30.28 1025 10 16 0.00 0.00
2:52 am 02:52 Cloudy 35 1.7 28 -2.2 76 76 NE 7 11 30.29 1026 10 16 0.00 0.00
3:52 am 03:52 Cloudy 35 1.7 28 -2.2 76 76 NE 7 11 30.28 1026 10 16 0.00 0.00
4:52 am 04:52 Cloudy 35 1.7 29 -1.7 78 78 NE 10 17 30.27 1025 8 13 0.00 0.00
5:52 am 05:52 Cloudy 35 1.7 29 -1.7 78 78 ENE 10 17 30.27 1025 8 13 0.00 0.00
6:52 am 06:52 Cloudy 35 1.7 28 -2.2 76 76 ENE 10 17 30.28 1025 8 13 0.00 0.00
7:52 am 07:52 Mostly Cloudy 35 1.7 28 -2.2 76 76 ENE 12 19 30.27 1025 9 14 0.00 0.00
8:52 am 08:52 Cloudy 35 1.7 27 -2.8 72 72 ENE 12 19 30.28 1026 9 14 0.00 0.00
9:52 am 09:52 Cloudy 37 2.8 26 -3.3 65 65 E 9 15 30.29 1026 10 16 0.00 0.00
10:52 am 10:52 Cloudy 38 3.3 25 -3.9 60 60 E 12 19 30.28 1025 10 16 0.00 0.00
11:52 am 11:52 Cloudy 39 3.9 24 -4.4 55 55 ENE 16 26 30.25 1024 10 16 0.00 0.00
12:52 pm 12:52 Cloudy 37 2.8 24 -4.4 59 59 ENE 12 19 30.22 1024 10 16 0.00 0.00
1:52 pm 13:52 Cloudy 39 3.9 23 -5 53 53 ENE 13 20 30.20 1023 10 16 0.00 0.00
2:52 pm 14:52 Cloudy 39 3.9 23 -5 53 53 ENE 13 20 30.19 1023 10 16 0.00 0.00
3:52 pm 15:52 Cloudy 38 3.3 23 -5 55 55 E 12 19 30.20 1023 10 16 0.00 0.00
4:52 pm 16:52 Cloudy 37 2.8 24 -4.4 59 59 ENE 15 24 30.20 1023 10 16 0.00 0.00
5:52 pm 17:52 Cloudy 36 2.2 23 -5 59 59 NE 17 28 30.18 1022 10 16 0.00 0.00
6:52 pm 18:52 Cloudy 35 1.7 22 -5.6 59 59 ENE 17 28 30.16 1021 10 16 0.00 0.00
7:37 pm 19:37 Cloudy 35 1.7 23 -5 61 61 ENE 12 19 30.20 1023 10 16 0.00 0.00
7:52 pm 19:52 Cloudy 35 1.7 23 -5 61 61 ENE 10 17 30.17 1022 10 16 0.00 0.00
8:43 pm 20:43 Cloudy 35 1.7 22 -5.6 59 59 E 15 24 30.21 1023 10 16 0.00 0.00
8:52 pm 20:52 Cloudy 34 1.1 22 -5.6 61 61 ENE 14 22 30.18 1022 10 16 0.00 0.00
9:52 pm 21:52 Cloudy 35 1.7 23 -5 61 61 ENE 9 15 30.18 1022 10 16 0.00 0.00
10:06 pm 22:06 Cloudy 35 1.7 23 -5 61 61 NE 9 15 30.20 1023 10 16 0.00 0.00
10:52 pm 22:52 Cloudy 35 1.7 24 -4.4 64 64 NNE 9 15 30.18 1022 10 16 0.00 0.00
11:52 pm 23:52 Cloudy 34 1.1 25 -3.9 70 70 NE 12 19 30.16 1021 10 16 0.00 0.00

Powered by AerisWeather